Theta_e
300 300 300 300 299 300 299 299 299 301 302 303 305 305 306 306 306 301 298 300 295 289 289 291 290 287 288 288 284 289 287 290 288 284 285 286 286 292 289 290 291 290 287 286 284 284 283 298 300 293 296 300 300 296
300 300 300 299 299 299 299 299 299 300 302 303 304 305 306 307 306 304 293 297 300 292 290 295 295 296 294 294 290 290 289 290 288 286 288 286 288 292 291 286 298 289 291 290 289 288 295 296 295 299 300 297 296 295
300 300 299 299 299 299 299 299 299 300 301 302 303 305 305 306 307 304 297 298 296 292 292 288 290 296 300 299 300 291 295 297 296 298 294 290 288 293 288 291 295 297 298 293 291 292 294 296 298 298 298 296 297 297
299 299 299 299 299 299 299 299 299 300 301 302 303 304 305 306 306 305 299 299 297 294 287 288 297 295 300 300 301 301 299 300 300 299 294 292 287 295 292 295 293 296 295 291 290 293 294 295 297 297 296 296 295 295
299 299 299 299 299 298 298 300 299 300 301 302 303 304 304 305 306 301 298 299 302 294 287 289 294 295 297 298 298 300 299 297 296 293 292 290 293 292 295 297 294 298 295 291 288 293 292 292 295 296 294 292 292 291
299 299 298 299 298 299 299 299 299 300 301 302 303 304 305 305 304 293 289 297 302 300 291 286 291 292 296 297 296 297 298 295 294 291 290 293 293 293 292 291 294 296 296 296 290 293 292 292 293 294 291 291 291 290
298 298 298 299 298 299 300 299 299 300 301 302 303 304 305 306 298 290 289 294 300 301 292 287 287 291 294 293 293 295 296 292 290 291 290 289 293 297 295 288 293 294 293 293 295 294 289 291 288 291 290 290 291 289
298 298 298 298 298 299 300 298 300 301 302 304 304 305 307 306 302 296 300 304 304 298 295 287 287 287 292 288 289 293 290 291 290 289 293 289 293 296 290 293 294 294 293 293 293 292 290 290 290 289 290 289 287 286
298 298 298 298 298 300 299 299 300 302 303 304 304 304 296 292 292 292 304 306 303 296 289 289 286 282 291 288 288 290 289 287 290 287 289 291 288 289 294 295 295 296 292 291 292 291 291 289 289 289 288 288 286 286
298 298 297 298 299 299 299 300 301 302 303 302 295 290 286 291 303 301 296 293 294 295 294 289 291 286 288 287 286 287 287 284 283 286 290 288 290 296 299 298 296 294 294 293 290 288 289 288 288 288 287 288 287 287
298 298 297 298 300 299 299 300 301 302 298 290 292 288 292 301 293 291 288 287 288 288 291 291 287 285 290 285 284 287 283 285 282 284 285 286 285 291 297 296 296 297 297 295 293 293 292 291 290 289 289 289 288 288
298 298 298 298 299 300 300 301 302 294 291 293 294 297 297 294 291 287 283 288 287 283 291 287 288 288 289 290 287 287 284 286 283 288 286 284 288 294 297 297 298 299 294 293 294 293 292 292 292 291 289 288 288 288
298 298 298 298 299 299 300 301 302 301 299 299 296 293 291 290 277 283 281 286 287 290 289 290 289 287 288 289 286 285 284 283 288 284 287 290 295 298 296 297 298 297 296 295 294 294 294 293 293 291 290 290 290 289
298 298 298 298 299 300 300 300 300 298 295 292 288 284 285 286 285 284 287 288 290 292 293 292 287 284 285 285 284 283 285 286 282 279 285 291 294 297 300 299 296 296 296 294 294 294 293 292 291 292 291 291 289 288
298 298 298 298 299 299 299 300 301 295 294 290 289 282 285 289 290 292 292 289 294 296 294 291 291 289 284 283 283 282 283 283 284 284 287 292 295 296 300 297 295 296 296 295 293 293 292 292 290 290 290 290 290 289
298 297 295 298 298 299 299 298 296 298 296 293 290 285 288 287 289 290 290 292 296 295 293 292 288 287 284 282 282 282 281 281 285 290 293 296 297 297 298 300 295 295 295 293 293 293 292 291 290 289 290 289 289 289
297 289 296 298 298 299 299 295 298 296 293 291 287 289 289 289 288 290 289 292 296 291 286 286 285 283 288 283 283 288 285 287 292 293 294 295 296 297 295 294 294 294 292 292 292 292 291 291 291 289 287 287 287 287
289 290 296 297 298 297 293 298 295 293 289 291 288 291 292 293 291 290 290 290 293 293 290 289 290 288 285 284 284 287 288 290 291 290 293 295 297 296 294 294 294 294 293 292 291 290 290 289 288 287 286 286 286 286
292 293 297 299 298 295 291 295 297 289 290 292 293 293 293 294 294 294 292 293 296 297 293 292 286 287 286 290 290 292 291 290 289 290 291 297 296 294 294 295 295 294 292 291 289 289 288 289 287 287 286 286 285 285
298 298 298 299 299 290 291 292 298 291 287 291 293 291 293 293 293 293 292 292 294 294 290 288 287 289 288 290 294 292 291 290 289 290 292 296 293 292 292 295 294 290 289 289 288 287 286 285 285 285 286 286 285 285
293 295 297 296 295 293 291 292 291 290 290 290 290 289 289 291 290 291 290 291 290 289 287 289 290 291 292 292 292 291 289 290 291 293 294 293 294 292 290 289 290 289 288 288 287 286 286 286 285 285 286 286 286 286
288 296 289 292 294 295 293 295 289 290 290 289 289 290 287 287 288 289 292 289 291 290 291 291 291 292 293 296 295 293 295 295 294 295 295 294 290 290 290 290 290 288 289 288 287 287 286 286 286 287 287 286 287 287
296 296 294 291 290 283 286 293 288 289 287 287 289 287 287 287 290 296 289 288 289 294 295 293 293 293 293 292 293 295 298 296 296 296 296 296 296 294 292 291 291 290 288 288 289 288 287 287 288 287 287 287 286 286
298 291 289 287 288 284 290 287 289 290 290 287 286 286 287 288 292 290 286 287 291 293 292 292 292 290 290 291 291 295 295 295 294 293 296 297 295 296 297 293 292 291 291 291 290 289 288 288 286 286 286 285 285 285
285 283 285 280 286 287 288 288 287 286 287 287 286 287 287 289 287 286 285 288 290 291 291 291 294 291 289 289 290 292 294 292 291 291 292 293 294 292 291 291 291 292 292 290 288 288 287 287 286 286 286 286 285 285
281 286 284 287 289 288 287 286 287 287 288 285 289 288 289 286 285 286 288 289 290 291 292 294 293 295 295 295 294 294 295 296 295 292 293 294 293 291 290 289 289 290 291 291 290 288 287 287 287 287 286 286 285 285
282 283 287 291 291 288 286 287 288 286 286 286 287 286 287 285 285 290 295 293 293 294 294 295 299 296 297 299 300 301 300 298 298 299 299 297 296 296 293 291 291 292 292 292 291 290 288 288 287 287 286 286 286 286
288 287 284 286 285 286 285 286 287 286 286 288 288 286 286 286 287 292 294 299 299 295 294 295 296 297 300 300 302 302 299 299 295 295 295 294 294 294 295 294 294 288 293 293 292 291 290 289 288 288 287 286 285 286
287 289 289 286 286 286 287 286 287 291 293 291 288 290 292 295 296 295 297 298 300 299 297 294 295 297 302 303 302 300 297 297 297 295 295 290 290 291 293 293 291 292 291 290 285 289 291 290 289 289 289 288 287 285
287 290 288 288 287 287 289 291 290 295 297 297 297 296 296 295 297 298 297 299 299 296 295 294 294 296 299 299 299 300 299 298 298 296 294 292 293 292 293 293 292 291 290 289 288 286 284 287 286 287 286 285 284 284
290 290 288 288 286 291 292 293 295 296 296 295 297 293 292 294 296 299 299 298 298 298 295 295 298 300 299 299 299 297 296 296 295 296 297 296 294 293 293 293 292 291 290 289 288 288 287 287 286 286 285 284 284 284
289 287 285 284 284 289 290 289 289 289 289 289 291 292 293 294 292 294 296 298 297 293 290 296 298 299 302 303 302 300 291 296 295 295 296 294 293 294 293 293 292 292 291 290 289 288 288 288 286 285 284 284 284 284
290 291 290 289 284 287 291 290 286 284 286 284 285 287 288 291 289 296 300 298 295 295 296 293 292 292 299 301 301 299 294 296 292 287 286 289 289 291 292 292 292 291 290 289 288 288 288 286 285 284 284 283 283 283
Wind_Speed
14 16 17 17 18 19 20 21 21 21 22 23 23 24 24 19 15 6 5 5 3 4 15 11 5 10 13 10 7 13 8 1 3 5 4 3 3 3 2 2 4 4 3 3 3 6 3 9 3 5 4 12 15 13
14 15 16 17 18 19 19 20 20 21 22 23 24 25 23 21 17 8 2 2 2 4 14 19 21 23 21 20 9 4 6 9 3 3 2 4 3 3 4 2 5 5 3 4 6 3 6 5 6 7 8 19 10 19
14 15 16 17 17 20 20 21 20 21 22 23 24 24 23 22 17 7 3 2 2 4 9 4 7 8 7 9 8 5 3 7 4 8 2 3 3 4 4 5 3 5 5 5 3 10 11 14 16 16 16 20 17 19
14 15 16 17 18 20 20 21 21 22 23 23 23 23 23 22 17 10 2 2 2 4 5 9 4 12 14 6 8 12 13 11 7 6 2 2 2 4 4 7 7 4 5 6 11 11 16 17 15 19 21 22 21 19
15 16 17 18 18 20 20 20 21 22 22 24 24 23 22 20 16 5 3 3 2 2 4 9 19 8 8 7 13 7 9 7 4 3 2 3 2 3 2 3 6 6 3 3 5 8 13 11 12 17 21 20 19 23
15 16 17 18 19 19 20 20 21 22 24 24 25 24 21 17 5 2 3 1 3 1 3 6 6 9 13 13 9 8 4 2 1 1 3 3 2 3 4 4 14 10 14 6 7 16 18 17 15 15 23 18 18 20
15 15 16 18 19 20 20 20 22 23 24 25 25 23 21 11 2 3 4 3 3 2 2 5 5 6 7 6 5 5 5 3 3 3 5 4 6 6 5 5 6 14 16 15 13 13 15 9 12 13 21 20 22 19
16 16 16 17 18 20 19 20 22 24 24 25 24 21 10 2 2 3 2 2 1 1 2 3 7 6 5 5 5 4 5 4 6 3 5 5 4 5 7 7 10 13 18 17 17 18 17 14 16 16 16 18 19 15
14 15 16 17 18 18 18 20 23 23 24 25 20 4 3 2 0 4 7 10 1 2 2 2 3 5 5 3 3 5 3 5 3 4 3 2 5 7 5 7 9 3 9 16 15 15 14 16 14 13 16 15 17 12
14 14 16 16 18 17 18 20 21 22 25 17 5 4 3 3 9 7 2 0 0 2 2 3 0 5 3 3 4 5 3 2 4 3 2 5 3 4 8 5 7 11 16 18 19 12 12 13 12 12 12 11 11 11
13 13 15 17 18 17 18 19 19 19 9 5 4 3 4 9 3 2 1 0 1 3 3 4 4 3 2 3 3 2 2 3 4 5 4 3 5 5 7 6 6 8 5 10 10 11 11 14 13 13 12 11 11 11
15 14 15 16 17 17 18 16 15 4 2 4 5 5 3 2 1 2 2 2 1 3 3 2 4 3 3 1 1 4 3 3 2 3 4 3 3 9 4 4 6 6 10 12 12 15 12 12 12 12 11 10 9 10
14 14 15 16 17 16 18 15 14 15 10 2 2 3 1 1 6 3 4 1 3 4 2 4 5 2 4 3 1 3 5 1 1 5 2 2 4 7 5 4 5 7 12 14 13 11 13 13 11 12 12 9 11 10
14 15 16 17 18 15 11 13 16 9 3 1 2 5 2 2 1 2 2 2 4 3 5 3 3 1 2 5 1 3 2 3 3 3 2 1 4 7 2 2 7 10 10 13 13 13 13 13 11 11 11 10 10 10
15 17 19 15 6 12 15 16 15 2 2 1 0 3 2 2 3 3 2 3 4 3 3 4 2 1 1 2 3 3 4 3 2 1 2 3 6 5 2 7 8 9 10 11 11 12 12 12 12 10 9 8 9 10
13 15 3 5 15 18 19 11 1 3 2 2 2 2 2 2 3 2 2 4 2 4 2 1 3 3 3 1 3 3 1 1 2 2 3 5 1 3 3 6 7 8 9 9 9 11 11 12 12 11 9 9 9 10
9 4 6 13 18 21 13 2 1 3 2 2 3 3 2 3 5 3 2 3 2 3 2 1 3 1 3 3 2 1 0 3 2 2 2 3 1 4 5 7 9 10 9 8 10 9 10 10 11 11 9 4 7 6
4 5 11 16 14 7 2 2 2 2 3 3 2 2 3 3 3 3 4 2 1 2 1 1 2 1 2 2 2 2 3 2 2 2 3 3 2 5 7 10 8 8 11 10 8 9 10 10 9 5 8 6 7 6
7 8 15 18 7 3 2 2 2 2 4 2 3 2 3 4 4 3 3 3 3 2 1 1 1 1 3 3 3 2 2 3 2 1 1 2 4 8 10 10 10 8 7 6 9 6 5 6 7 6 6 6 5 4
14 14 15 12 4 1 2 3 1 2 2 2 2 3 3 4 2 2 2 1 2 2 0 1 3 3 3 3 2 2 2 3 2 1 1 2 4 7 8 10 8 7 5 7 6 7 6 5 3 5 5 6 6 5
6 3 5 2 1 2 2 3 3 3 2 2 2 1 4 2 2 1 1 0 2 1 2 3 3 3 3 2 1 1 2 3 3 3 3 3 4 6 6 5 7 5 5 5 6 4 5 6 4 4 5 4 3 4
3 5 1 2 2 3 3 3 3 2 1 3 3 1 3 3 3 2 2 2 1 2 2 1 2 1 0 1 1 1 2 4 4 5 8 7 4 5 6 7 7 5 5 5 6 6 5 4 5 4 4 4 4 4
5 1 1 1 2 1 5 2 0 2 2 3 2 2 2 2 3 1 2 1 2 2 1 1 1 3 3 2 3 3 4 4 4 6 6 5 4 6 5 4 5 7 5 3 3 5 4 6 6 5 4 4 4 3
2 1 2 1 2 4 1 2 2 2 2 1 1 3 2 2 3 2 1 2 3 3 3 1 1 3 3 4 3 2 3 3 4 4 4 6 6 3 2 3 3 2 3 4 4 4 4 5 6 5 5 4 4 5
1 1 2 3 2 2 2 3 2 1 3 1 1 2 3 3 2 3 1 3 3 3 2 0 2 3 3 1 0 0 1 3 4 4 1 4 4 4 0 3 1 2 3 5 4 5 4 5 5 6 6 6 7 7
1 3 4 2 1 2 2 2 3 2 2 2 1 2 3 3 4 2 3 3 2 2 2 1 3 3 1 0 1 2 2 3 4 3 4 5 5 5 5 4 3 4 5 4 6 7 7 6 7 9 6 6 6 7
2 2 2 3 2 2 3 2 2 1 3 2 2 2 2 2 0 3 3 3 3 3 2 1 2 4 4 4 3 2 2 4 4 3 3 7 7 6 6 7 8 5 6 8 7 9 10 10 9 8 6 4 6 8
3 1 1 1 2 2 2 2 2 2 2 1 2 2 3 2 1 3 3 2 2 1 1 1 1 2 3 3 2 4 4 2 2 3 4 3 2 3 4 2 2 9 6 6 6 6 7 8 8 8 8 8 7 5
3 2 1 3 3 3 2 1 2 1 1 1 2 0 1 1 3 3 3 3 1 2 3 3 3 2 2 3 3 1 3 3 5 8 3 5 2 2 3 4 4 3 4 5 5 6 9 8 8 9 8 6 4 4
3 3 1 2 1 2 2 2 3 2 1 1 1 1 2 2 3 3 3 4 4 3 3 2 1 1 1 2 2 1 1 2 4 5 8 6 6 2 4 4 5 4 4 6 6 5 7 6 6 4 5 4 3 4
1 1 2 2 1 4 7 4 1 1 2 2 1 3 3 2 2 5 6 4 3 3 4 4 3 3 3 3 4 2 5 3 4 5 5 2 2 4 5 4 4 5 5 6 6 5 5 4 4 6 7 7 6 6
1 3 2 2 4 3 1 3 2 3 2 1 1 0 1 3 3 3 4 5 5 5 5 4 4 3 4 0 3 3 4 3 4 4 3 4 4 5 5 5 5 5 6 7 6 5 6 7 7 8 8 8 8 7
1 2 1 2 4 5 3 3 1 1 1 1 1 2 2 3 2 2 2 4 2 3 4 4 4 4 4 3 2 2 3 4 6 5 5 3 6 6 4 4 5 7 7 6 6 6 7 7 6 6 8 8 8 7
Wind_Direction
301 304 307 311 319 317 321 321 323 322 325 324 326 324 325 328 331 332 266 186 203 260 286 257 264 269 286 282 282 302 316 1 311 345 332 326 303 12 45 348 288 59 76 34 45 80 102 13 341 156 164 95 118 99
293 300 303 308 314 317 318 318 322 320 321 322 324 324 328 331 323 334 269 191 192 236 272 288 275 264 259 258 267 268 268 288 272 310 296 298 313 314 222 30 23 46 48 81 47 57 343 351 69 60 101 114 107 111
293 300 305 306 315 316 318 318 320 317 320 321 323 323 323 324 327 316 256 263 242 275 287 328 268 270 233 233 217 272 286 314 268 303 233 244 298 320 9 29 75 59 36 68 110 24 58 60 70 73 83 96 107 113
298 303 305 310 314 316 317 317 320 318 319 319 320 318 318 321 319 318 263 283 245 280 293 286 297 294 290 271 223 228 266 274 276 292 301 341 321 350 15 59 65 3 37 80 88 89 70 55 72 92 91 93 96 94
299 303 309 309 315 313 314 317 318 317 317 319 319 320 317 317 314 302 246 244 190 336 290 290 306 267 285 286 303 265 232 258 282 320 311 345 312 12 352 39 40 352 342 69 75 64 98 77 83 96 95 97 98 103
298 306 309 310 312 311 310 318 318 316 317 317 318 321 317 316 336 12 347 281 191 27 298 300 286 293 310 326 329 327 328 288 253 341 323 356 322 25 49 55 9 22 47 21 91 81 85 82 73 79 94 93 94 95
298 303 309 310 310 309 316 321 317 314 316 315 315 319 311 303 147 181 195 224 226 234 265 289 291 288 313 314 327 332 331 349 29 357 3 331 360 25 33 54 36 70 74 85 98 97 63 57 97 93 92 93 88 84
303 305 309 308 309 313 320 321 314 316 315 312 316 316 308 219 186 283 259 230 230 256 247 295 281 331 360 320 329 1 342 344 23 35 333 11 352 22 62 84 84 77 70 55 62 74 97 102 91 86 89 94 88 90
301 305 307 308 310 318 321 320 317 318 314 316 318 326 57 36 80 245 285 307 136 175 294 279 295 296 356 315 286 326 14 5 308 56 358 14 345 44 106 111 109 9 107 114 92 89 94 91 92 92 93 89 95 95
297 303 306 310 313 323 321 319 321 321 318 325 19 34 343 261 302 319 63 88 334 187 235 256 274 278 10 355 311 339 5 27 24 313 304 43 42 24 19 68 100 117 122 125 111 110 108 98 100 97 96 100 104 110
301 306 306 308 317 322 320 319 324 331 356 10 358 336 263 304 353 39 324 166 205 255 210 240 213 272 304 354 295 37 314 339 43 300 71 19 4 344 6 64 80 113 119 93 97 99 105 116 118 113 107 106 109 110
305 306 304 309 315 319 315 321 327 13 246 255 283 291 268 296 326 350 284 336 282 261 297 275 271 220 293 126 15 339 353 1 34 321 55 40 313 333 32 90 100 85 105 104 108 114 115 115 117 115 114 113 108 110
306 307 305 306 306 312 311 315 322 323 312 277 204 259 266 221 27 17 358 5 310 314 294 316 315 358 339 30 358 18 25 335 307 38 64 60 343 354 32 100 99 98 118 112 110 107 109 108 108 118 118 114 117 115
303 304 304 301 307 305 320 323 324 326 284 304 344 307 217 318 173 214 233 243 263 265 302 314 297 31 325 8 19 14 316 28 40 37 21 36 352 332 357 104 124 114 121 121 123 122 119 122 118 113 119 128 124 122
299 301 301 301 344 338 326 320 316 230 238 258 182 265 272 310 269 262 272 303 259 260 298 316 278 151 306 11 16 1 14 55 64 345 264 298 313 296 209 117 113 114 126 125 129 129 126 125 119 114 115 117 119 121
305 307 257 323 335 330 321 320 235 194 226 225 228 278 277 298 301 322 281 274 276 310 325 45 3 4 7 39 29 37 340 3 288 289 264 297 291 157 138 138 130 111 116 118 123 129 126 127 129 124 116 119 124 127
302 235 278 323 327 318 312 194 217 226 243 213 255 216 237 255 248 251 233 261 309 356 353 57 5 9 302 358 40 72 223 230 243 287 307 302 57 115 106 110 116 114 106 110 114 112 108 111 117 116 115 106 115 120
239 266 303 315 324 309 283 216 246 228 248 253 250 258 203 227 254 263 251 253 300 305 28 342 176 72 306 291 292 235 240 262 227 246 304 336 86 105 106 107 97 110 116 112 112 116 121 125 124 119 120 122 110 112
263 280 294 301 307 303 304 267 207 268 239 240 243 238 242 256 230 240 232 234 227 244 310 54 112 237 241 227 245 251 215 221 223 252 283 304 110 127 121 115 109 100 88 118 122 120 115 122 134 134 134 136 139 143
286 291 287 290 233 211 272 266 190 249 279 270 271 254 218 240 278 251 260 259 179 163 219 217 218 227 211 247 243 220 196 170 142 53 44 97 119 120 134 140 136 133 111 93 86 92 97 81 81 127 135 139 141 160
340 283 339 96 153 176 255 293 261 205 262 253 271 279 272 304 291 301 289 28 58 179 257 229 245 260 230 270 284 153 150 157 186 190 164 127 120 133 121 114 129 123 125 128 129 116 121 160 161 146 142 153 150 143
261 319 355 273 258 208 247 218 219 262 248 255 312 279 288 309 303 280 182 59 294 269 232 264 290 296 175 63 32 239 162 121 106 94 77 78 106 119 140 145 138 135 145 150 149 163 178 162 152 155 155 160 143 144
291 251 310 313 296 55 258 119 262 231 245 271 346 312 278 285 246 267 57 272 263 276 306 339 5 13 83 43 72 69 85 99 105 104 95 91 89 99 112 103 128 138 134 176 154 155 164 153 157 152 144 136 142 138
247 308 295 274 194 267 333 276 234 270 258 259 258 279 277 268 327 62 88 314 278 317 12 35 81 57 37 44 51 69 61 61 78 67 87 97 80 17 29 95 149 150 168 141 143 153 154 164 148 153 161 155 162 169
58 200 127 304 262 292 285 327 296 322 267 232 299 312 332 0 36 37 24 294 319 322 334 100 99 104 128 139 353 307 64 132 129 130 159 113 129 135 185 340 320 194 151 138 158 161 158 145 152 157 159 158 159 161
264 183 166 217 244 220 231 249 261 309 302 275 56 320 15 51 46 7 305 255 271 268 290 217 162 117 65 202 167 203 213 167 135 143 189 172 176 166 187 194 220 265 203 179 155 167 162 160 158 153 150 151 145 146
302 270 230 212 211 270 298 276 254 273 281 359 356 38 35 67 247 255 271 229 227 236 212 216 191 191 199 185 213 254 270 185 188 201 176 179 188 190 174 187 214 227 165 169 167 162 166 165 164 158 153 160 178 180
258 257 236 302 308 213 241 268 271 359 340 328 90 45 188 202 241 264 240 288 218 147 115 343 233 220 190 154 77 309 295 169 113 93 56 82 105 173 200 176 160 152 141 152 152 141 154 160 162 158 164 181 192 179
259 256 219 267 223 229 211 261 283 263 254 48 107 165 303 18 325 324 331 329 347 49 23 1 338 351 102 130 171 263 139 139 118 106 271 272 306 263 164 138 134 145 125 118 104 140 163 163 166 171 176 176 169 143
250 175 231 250 282 12 329 235 273 296 299 218 158 116 296 43 350 309 4 20 26 21 336 317 310 9 116 151 190 342 70 184 208 177 188 200 219 191 167 163 165 160 140 131 122 106 92 94 101 92 116 123 139 142
220 169 230 227 200 207 226 242 230 247 286 281 235 200 179 172 25 26 18 343 26 35 29 13 16 54 71 92 69 355 309 324 317 240 221 234 167 187 185 177 147 136 141 143 148 148 138 146 153 149 154 160 165 156
176 218 205 221 271 283 212 174 209 206 213 209 210 85 99 76 44 1 354 345 35 32 357 357 7 358 332 222 153 239 232 293 335 335 260 227 214 187 160 155 154 154 157 158 159 159 167 164 162 169 171 167 162 163
32 342 323 12 350 344 321 10 47 6 41 81 258 155 143 133 126 3 359 20 33 360 346 329 314 312 328 14 348 295 346 334 333 344 352 229 181 164 167 156 151 148 150 154 158 159 164 153 156 152 152 153 157 156